Time,TemperatureF,DewpointF,PressureIn,WindDirection,WindDirectionDegrees,WindSpeedMPH,WindSpeedGustMPH,Humidity,HourlyPrecipIn,Conditions,Clouds,dailyrainin,SoftwareType,DateUTC
2013-01-09 00:04:00,37.2,28.7,30.14,NE,45,0.0,-999.0,71,-99.99,,,0.00,Acu-Link.com,2013-01-09 08:04:00,
2013-01-09 00:19:00,37.2,27.3,30.13,NNE,22,0.0,-999.0,67,-99.99,,,0.00,Acu-Link.com,2013-01-09 08:19:00,
2013-01-09 00:34:00,38.7,28.0,30.13,NE,45,0.0,-999.0,65,-99.99,,,0.00,Acu-Link.com,2013-01-09 08:34:00,
2013-01-09 00:49:00,38.5,28.5,30.13,WNW,292,0.0,-999.0,67,-99.99,,,0.00,Acu-Link.com,2013-01-09 08:49:00,
2013-01-09 01:12:00,37.8,28.2,30.13,ESE,112,0.0,-999.0,68,-99.99,,,0.00,Acu-Link.com,2013-01-09 09:12:00,
2013-01-09 01:27:00,37.2,26.9,30.12,ENE,67,0.0,-999.0,66,-99.99,,,0.00,Acu-Link.com,2013-01-09 09:27:00,
2013-01-09 01:42:00,37.0,28.1,30.12,ESE,112,0.0,-999.0,70,-99.99,,,0.00,Acu-Link.com,2013-01-09 09:42:00,
2013-01-09 01:57:00,38.3,28.0,30.12,East,90,0.0,-999.0,66,-99.99,,,0.00,Acu-Link.com,2013-01-09 09:57:00,
2013-01-09 02:12:00,37.9,27.6,30.13,East,90,0.0,-999.0,66,-99.99,,,0.00,Acu-Link.com,2013-01-09 10:12:00,
2013-01-09 02:27:00,37.4,27.5,30.13,NE,45,0.0,-999.0,67,-99.99,,,0.00,Acu-Link.com,2013-01-09 10:27:00,
2013-01-09 02:42:00,37.4,27.5,30.11,ESE,112,0.0,-999.0,67,-99.99,,,0.00,Acu-Link.com,2013-01-09 10:42:00,
2013-01-09 02:57:00,37.2,27.6,30.11,ENE,67,0.0,-999.0,68,-99.99,,,0.00,Acu-Link.com,2013-01-09 10:57:00,
2013-01-09 03:13:00,36.7,27.5,30.11,NNE,22,0.0,-999.0,69,-99.99,,,0.00,Acu-Link.com,2013-01-09 11:13:00,
2013-01-09 03:28:00,36.5,28.0,30.11,NNE,22,0.0,-999.0,71,-99.99,,,0.00,Acu-Link.com,2013-01-09 11:28:00,
2013-01-09 03:43:00,37.0,27.1,30.11,ENE,67,0.0,-999.0,67,-99.99,,,0.00,Acu-Link.com,2013-01-09 11:43:00,
2013-01-09 03:58:00,36.3,27.1,30.10,NNE,22,0.0,-999.0,69,-99.99,,,0.00,Acu-Link.com,2013-01-09 11:58:00,
2013-01-09 04:13:00,36.0,27.9,30.10,NNE,22,0.0,-999.0,72,-99.99,,,0.00,Acu-Link.com,2013-01-09 12:13:00,
2013-01-09 04:28:00,36.3,27.5,30.09,NNE,22,0.0,-999.0,70,-99.99,,,0.00,Acu-Link.com,2013-01-09 12:28:00,
2013-01-09 04:43:00,36.7,27.5,30.09,North,0,0.0,-999.0,69,-99.99,,,0.00,Acu-Link.com,2013-01-09 12:43:00,
2013-01-09 04:58:00,35.8,27.3,30.08,NE,45,0.0,-999.0,71,-99.99,,,0.00,Acu-Link.com,2013-01-09 12:58:00,
2013-01-09 05:13:00,35.1,27.0,30.08,NE,45,0.0,-999.0,72,-99.99,,,0.00,Acu-Link.com,2013-01-09 13:13:00,
2013-01-09 05:29:00,35.2,27.4,30.08,NE,45,0.0,-999.0,73,-99.99,,,0.00,Acu-Link.com,2013-01-09 13:29:00,
2013-01-09 05:44:00,36.1,26.9,30.08,NE,45,0.0,-999.0,69,-99.99,,,0.00,Acu-Link.com,2013-01-09 13:44:00,
2013-01-09 05:59:00,37.0,26.7,30.08,North,0,0.0,-999.0,66,-99.99,,,0.00,Acu-Link.com,2013-01-09 13:59:00,
2013-01-09 06:14:00,37.6,26.9,30.08,ENE,67,0.0,-999.0,65,-99.99,,,0.00,Acu-Link.com,2013-01-09 14:14:00,
2013-01-09 06:29:00,38.1,26.3,30.08,East,90,0.0,-999.0,62,-99.99,,,0.00,Acu-Link.com,2013-01-09 14:29:00,
2013-01-09 06:44:00,39.2,25.7,30.08,ENE,67,0.0,-999.0,58,-99.99,,,0.00,Acu-Link.com,2013-01-09 14:44:00,
2013-01-09 06:59:00,41.2,25.4,30.09,East,90,0.0,-999.0,53,-99.99,,,0.00,Acu-Link.com,2013-01-09 14:59:00,
2013-01-09 07:14:00,42.6,24.8,30.09,East,90,0.0,-999.0,49,-99.99,,,0.00,Acu-Link.com,2013-01-09 15:14:00,
2013-01-09 07:29:00,44.2,24.2,30.10,East,90,0.0,-999.0,45,-99.99,,,0.00,Acu-Link.com,2013-01-09 15:29:00,
2013-01-09 07:45:00,44.4,24.4,30.09,ENE,67,0.0,-999.0,45,-99.99,,,0.00,Acu-Link.com,2013-01-09 15:45:00,
2013-01-09 08:00:00,45.5,24.9,30.09,NE,45,0.0,-999.0,44,-99.99,,,0.00,Acu-Link.com,2013-01-09 16:00:00,
2013-01-09 08:15:00,45.1,25.6,30.09,SSE,157,0.0,-999.0,46,-99.99,,,0.00,Acu-Link.com,2013-01-09 16:15:00,
2013-01-09 08:30:00,47.7,25.7,30.10,NNW,337,0.0,-999.0,42,-99.99,,,0.00,Acu-Link.com,2013-01-09 16:30:00,
2013-01-09 08:45:00,50.9,25.6,30.09,East,90,0.0,-999.0,37,-99.99,,,0.00,Acu-Link.com,2013-01-09 16:45:00,
2013-01-09 09:00:00,52.2,27.4,30.10,SSE,157,0.0,-999.0,38,-99.99,,,0.00,Acu-Link.com,2013-01-09 17:00:00,
2013-01-09 09:15:00,53.4,27.8,30.10,SW,225,0.0,-999.0,37,-99.99,,,0.00,Acu-Link.com,2013-01-09 17:15:00,
2013-01-09 09:30:00,54.7,26.9,30.08,South,180,3.7,-999.0,34,-99.99,,,0.00,Acu-Link.com,2013-01-09 17:30:00,
2013-01-09 09:45:00,54.5,27.4,30.09,SSW,202,0.0,-999.0,35,-99.99,,,0.00,Acu-Link.com,2013-01-09 17:45:00,
2013-01-09 10:00:00,55.0,27.9,30.09,SSW,202,3.7,-999.0,35,-99.99,,,0.00,Acu-Link.com,2013-01-09 18:00:00,
2013-01-09 10:16:00,54.9,27.8,30.08,WNW,292,4.7,-999.0,35,-99.99,,,0.00,Acu-Link.com,2013-01-09 18:16:00,
2013-01-09 10:31:00,55.6,27.0,30.07,SSW,202,2.2,-999.0,33,-99.99,,,0.00,Acu-Link.com,2013-01-09 18:31:00,
2013-01-09 10:46:00,55.9,27.2,30.06,West,270,0.0,-999.0,33,-99.99,,,0.00,Acu-Link.com,2013-01-09 18:46:00,
2013-01-09 11:01:00,57.4,30.0,30.05,SSW,202,5.8,-999.0,35,-99.99,,,0.00,Acu-Link.com,2013-01-09 19:01:00,
2013-01-09 11:17:00,57.4,28.5,30.04,WSW,247,1.1,-999.0,33,-99.99,,,0.00,Acu-Link.com,2013-01-09 19:17:00,
2013-01-09 11:32:00,57.2,28.4,30.03,SE,135,3.2,-999.0,33,-99.99,,,0.00,Acu-Link.com,2013-01-09 19:32:00,
2013-01-09 11:47:00,56.8,28.7,30.02,South,180,1.1,-999.0,34,-99.99,,,0.00,Acu-Link.com,2013-01-09 19:47:00,
2013-01-09 12:02:00,57.0,27.4,30.02,West,270,3.7,-999.0,32,-99.99,,,0.00,Acu-Link.com,2013-01-09 20:02:00,
2013-01-09 12:17:00,56.8,27.3,30.01,SW,225,3.2,-999.0,32,-99.99,,,0.00,Acu-Link.com,2013-01-09 20:17:00,
2013-01-09 12:32:00,56.3,28.3,30.01,SW,225,6.8,-999.0,34,-99.99,,,0.00,Acu-Link.com,2013-01-09 20:32:00,
2013-01-09 12:47:00,55.8,27.9,30.01,WSW,247,3.7,-999.0,34,-99.99,,,0.00,Acu-Link.com,2013-01-09 20:47:00,
2013-01-09 13:02:00,55.6,27.7,30.00,ENE,67,5.8,-999.0,34,-99.99,,,0.00,Acu-Link.com,2013-01-09 21:02:00,
2013-01-09 13:18:00,55.6,28.4,29.99,WSW,247,5.3,-999.0,35,-99.99,,,0.00,Acu-Link.com,2013-01-09 21:18:00,
2013-01-09 13:33:00,55.2,29.4,30.00,ESE,112,2.7,-999.0,37,-99.99,,,0.00,Acu-Link.com,2013-01-09 21:33:00,
2013-01-09 13:48:00,54.5,29.4,30.00,WSW,247,9.4,-999.0,38,-99.99,,,0.00,Acu-Link.com,2013-01-09 21:48:00,
2013-01-09 14:03:00,54.3,29.9,29.99,NW,315,5.3,-999.0,39,-99.99,,,0.00,Acu-Link.com,2013-01-09 22:03:00,
2013-01-09 14:18:00,53.6,30.5,29.99,WSW,247,7.3,-999.0,41,-99.99,,,0.00,Acu-Link.com,2013-01-09 22:18:00,
2013-01-09 14:33:00,53.6,31.1,29.99,SE,135,3.7,-999.0,42,-99.99,,,0.00,Acu-Link.com,2013-01-09 22:33:00,
2013-01-09 14:48:00,53.4,30.9,29.98,SE,135,6.3,-999.0,42,-99.99,,,0.00,Acu-Link.com,2013-01-09 22:48:00,
2013-01-09 15:04:00,52.0,31.3,29.98,SSE,157,6.8,-999.0,45,-99.99,,,0.00,Acu-Link.com,2013-01-09 23:04:00,
2013-01-09 15:19:00,51.3,31.8,29.98,ENE,67,1.7,-999.0,47,-99.99,,,0.00,Acu-Link.com,2013-01-09 23:19:00,
2013-01-09 15:34:00,50.4,30.4,29.98,SW,225,0.0,-999.0,46,-99.99,,,0.00,Acu-Link.com,2013-01-09 23:34:00,
2013-01-09 15:49:00,50.0,29.5,29.98,West,270,4.2,-999.0,45,-99.99,,,0.00,Acu-Link.com,2013-01-09 23:49:00,
2013-01-09 16:04:00,49.8,30.9,29.97,SW,225,5.3,-999.0,48,-99.99,,,0.00,Acu-Link.com,2013-01-10 00:04:00,
2013-01-09 16:19:00,48.6,30.3,29.96,WNW,292,2.2,-999.0,49,-99.99,,,0.00,Acu-Link.com,2013-01-10 00:19:00,
2013-01-09 16:34:00,47.7,30.9,29.96,SSE,157,4.2,-999.0,52,-99.99,,,0.00,Acu-Link.com,2013-01-10 00:34:00,
2013-01-09 16:49:00,46.8,31.0,29.96,NNW,337,3.7,-999.0,54,-99.99,,,0.00,Acu-Link.com,2013-01-10 00:49:00,
2013-01-09 17:04:00,45.9,32.0,29.96,SSE,157,5.8,-999.0,58,-99.99,,,0.00,Acu-Link.com,2013-01-10 01:04:00,
2013-01-09 17:20:00,45.1,30.8,29.95,West,270,4.2,-999.0,57,-99.99,,,0.00,Acu-Link.com,2013-01-10 01:20:00,
2013-01-09 17:35:00,44.6,29.0,29.94,NNW,337,2.2,-999.0,54,-99.99,,,0.00,Acu-Link.com,2013-01-10 01:35:00,
2013-01-09 17:50:00,44.4,28.4,29.94,West,270,3.7,-999.0,53,-99.99,,,0.00,Acu-Link.com,2013-01-10 01:50:00,
2013-01-09 18:05:00,44.1,26.2,29.93,SE,135,0.0,-999.0,49,-99.99,,,0.00,Acu-Link.com,2013-01-10 02:05:00,
2013-01-09 18:20:00,43.9,27.0,29.94,South,180,5.8,-999.0,51,-99.99,,,0.00,Acu-Link.com,2013-01-10 02:20:00,
2013-01-09 18:35:00,43.9,26.5,29.93,North,0,0.0,-999.0,50,-99.99,,,0.00,Acu-Link.com,2013-01-10 02:35:00,
2013-01-09 18:50:00,43.3,26.4,29.92,SSE,157,5.3,-999.0,51,-99.99,,,0.00,Acu-Link.com,2013-01-10 02:50:00,
2013-01-09 19:05:00,43.3,26.9,29.92,SSW,202,4.2,-999.0,52,-99.99,,,0.00,Acu-Link.com,2013-01-10 03:05:00,
2013-01-09 19:20:00,43.0,26.1,29.92,SSE,157,2.2,-999.0,51,-99.99,,,0.00,Acu-Link.com,2013-01-10 03:20:00,
2013-01-09 19:36:00,42.6,25.8,29.91,SSE,157,6.3,-999.0,51,-99.99,,,0.00,Acu-Link.com,2013-01-10 03:36:00,
2013-01-09 19:51:00,42.4,24.6,29.92,NNE,22,4.7,-999.0,49,-99.99,,,0.00,Acu-Link.com,2013-01-10 03:51:00,
2013-01-09 20:06:00,42.6,24.3,29.91,South,180,6.8,-999.0,48,-99.99,,,0.00,Acu-Link.com,2013-01-10 04:06:00,
2013-01-09 20:21:00,42.3,25.5,29.91,NNE,22,3.2,-999.0,51,-99.99,,,0.00,Acu-Link.com,2013-01-10 04:21:00,
2013-01-09 20:36:00,41.9,26.0,29.91,West,270,4.2,-999.0,53,-99.99,,,0.00,Acu-Link.com,2013-01-10 04:36:00,
2013-01-09 20:51:00,41.9,23.7,29.89,South,180,9.9,-999.0,48,-99.99,,,0.00,Acu-Link.com,2013-01-10 04:51:00,
2013-01-09 21:07:00,41.9,23.7,29.88,South,180,8.9,-999.0,48,-99.99,,,0.00,Acu-Link.com,2013-01-10 05:07:00,
2013-01-09 21:22:00,41.9,23.7,29.88,SSW,202,7.8,-999.0,48,-99.99,,,0.00,Acu-Link.com,2013-01-10 05:22:00,
2013-01-09 21:37:00,42.1,22.3,29.87,SW,225,10.4,-999.0,45,-99.99,,,0.00,Acu-Link.com,2013-01-10 05:37:00,
2013-01-09 21:52:00,41.9,22.1,29.87,SSW,202,6.3,-999.0,45,-99.99,,,0.00,Acu-Link.com,2013-01-10 05:52:00,
2013-01-09 22:07:00,41.5,21.8,29.86,West,270,9.9,-999.0,45,-99.99,,,0.00,Acu-Link.com,2013-01-10 06:07:00,
2013-01-09 22:22:00,41.4,23.2,29.86,West,270,9.4,-999.0,48,-99.99,,,0.00,Acu-Link.com,2013-01-10 06:22:00,
2013-01-09 22:37:00,41.5,24.3,29.85,West,270,5.8,-999.0,50,-99.99,,,0.00,Acu-Link.com,2013-01-10 06:37:00,
2013-01-09 22:52:00,43.0,25.2,29.84,SSE,157,1.7,-999.0,49,-99.99,,,0.00,Acu-Link.com,2013-01-10 06:52:00,
2013-01-09 23:07:00,44.1,25.2,29.85,SW,225,11.9,-999.0,47,-99.99,,,0.00,Acu-Link.com,2013-01-10 07:07:00,
2013-01-09 23:23:00,44.1,25.2,29.84,WSW,247,7.8,-999.0,47,-99.99,,,0.00,Acu-Link.com,2013-01-10 07:23:00,
2013-01-09 23:38:00,44.1,25.2,29.83,SSE,157,13.0,-999.0,47,-99.99,,,0.00,Acu-Link.com,2013-01-10 07:38:00,
2013-01-09 23:53:00,44.1,24.7,29.82,SW,225,8.3,-999.0,46,-99.99,,,0.00,Acu-Link.com,2013-01-10 07:53:00,